Almeria, Spain

5:48 AM CEST en Septiembre 21, 2018 (GMT +0200)
Almeria

Tiempo Historia de LEAM - Julio, 2018

Change the Weather History Date:

Viernes, Julio 13, 2018

  Actual Average Record
Temperature  
Temperatura media 78 ° F -  
Temperatura máxima 83 ° F 82 ° F 95 ° F (2006)
Temperatura mínima 72 ° F 70 ° F 68 ° F (1996)
Cooling Degree Days 12    
Growing Degree Days 28 (Base 50)    
Moisture  
Punto de rocío 70 ° F    
Average Humidity 77    
Maximum Humidity 94    
Minimum Humidity 61    
Precipitación  
Precipitación 0.00 pul 0.00 pul - ()
Presión al nivel del mar  
Presión al nivel del mar 29.97 pul    
Viento  
Velocidad del viento 4 mph ()    
Velocidad máxima del viento 13 mph    
Max Gust Speed -    
Visibilidad 6.7 Millas    
Eventos      
Averages and records for this station are not official NWS values.
T = Trace of Precipitation, MM = Missing Value Source: Averaged Metar Reports

Daily Weather History Graph

Daily Weather History Graph

Search for Another Location

Airport or City:

Astronomía

Jul. 13, 2018 Salida Puesta
Hora real 7:00 AM CEST 9:29 PM CEST
Crepúsculo civil 6:30 AM CEST 9:59 PM CEST
Crepúsculo náutico 5:53 AM CEST 10:36 PM CEST
Crepúsculo astronómico 5:12 AM CEST 11:17 PM CEST
Luna 7:16 AM CEST (7/13) 9:57 PM CEST (7/13)
Horas de luz 15h 29m
Horas de luz
14h 28m
Luna nueva, 0% of the Moon is Illuminated
Jul 13
Luna nueva
Jul 19
Cuarto creciente
Jul 27
Luna llena
Ago 4
Cuarto menguante
Ago 11
Nueva

Hourly Weather History & Observations

Hora (CEST) Temp. Índice de calor Punto de rocío Humedad Presión Visibilidad Wind Dir Velocidad del viento Velocidad de ráfagas Precip Eventos Condiciones
12:00 AM 74 ° F - 70 ° F 84% 29.95 pul - Oeste 2.3 mph - -  
12:00 AM 75.2 ° F - 69.8 ° F 83% 29.95 pul 6.2 mi Variable 2.3 mph - N/A   Desconocido
12:30 AM 77.0 ° F - 69.8 ° F 78% 29.95 pul 6.2 mi Variable 3.5 mph - N/A   Desconocido
1:00 AM 74 ° F - 70 ° F 84% 29.96 pul - Este 2.3 mph - -  
1:00 AM 73.4 ° F - 69.8 ° F 88% 29.95 pul 5.6 mi Variable 2.3 mph - N/A   Desconocido
1:30 AM 73.4 ° F - 69.8 ° F 88% 29.95 pul 6.2 mi ESE 4.6 mph - N/A   Desconocido
2:00 AM 73 ° F - 71 ° F 90% 29.96 pul - SSO 4.6 mph - -  
2:00 AM 73.4 ° F - 69.8 ° F 88% 29.95 pul 5.6 mi SSO 4.6 mph - N/A   Desconocido
2:30 AM 71.6 ° F - 69.8 ° F 94% 29.95 pul 5.0 mi Variable 2.3 mph - N/A   Desconocido
3:00 AM 72 ° F - 70 ° F 91% 29.96 pul - Este 3.5 mph - -  
3:00 AM 73.4 ° F - 69.8 ° F 88% 29.95 pul 5.6 mi Variable 3.5 mph - N/A   Desconocido
3:30 AM 73.4 ° F - 69.8 ° F 88% 29.95 pul - Variable 2.3 mph - N/A   Despejado
4:00 AM 74 ° F - 69 ° F 80% 29.94 pul - Norte 3.5 mph - -  
4:00 AM 75.2 ° F - 68.0 ° F 78% 29.92 pul - Variable 2.3 mph - N/A   Despejado
4:30 AM 75.2 ° F - 68.0 ° F 78% 29.92 pul - Sin viento Sin viento - N/A   Despejado
5:00 AM 73.4 ° F - 68.0 ° F 83% 29.92 pul - Este 4.6 mph - N/A   Despejado
5:30 AM 73.4 ° F - 68.0 ° F 83% 29.92 pul - ESE 4.6 mph - N/A   Despejado
6:00 AM 71.6 ° F - 69.8 ° F 94% 29.92 pul - Variable 1.2 mph - N/A   Despejado
6:30 AM 71.6 ° F - 69.8 ° F 94% 29.95 pul 5.6 mi Oeste 4.6 mph - N/A   Desconocido
7:00 AM 73.4 ° F - 69.8 ° F 88% 29.95 pul 5.6 mi Oeste 2.3 mph - N/A   Desconocido
8:00 AM 73 ° F - 70 ° F 87% 29.96 pul 6 mi Sin viento Sin viento - -   Neblina
8:00 AM 73.4 ° F - 69.8 ° F 88% 29.95 pul 5.6 mi Sin viento Sin viento - N/A   Desconocido
8:30 AM 75.2 ° F - 69.8 ° F 83% 29.95 pul 5.6 mi Sin viento Sin viento - N/A   Parcialmente nublado
9:00 AM 77 ° F - 70 ° F 72% 29.97 pul - Sur 2.3 mph - -  
9:00 AM 75.2 ° F - 69.8 ° F 83% 29.95 pul 6.2 mi Variable 2.3 mph - N/A   Parcialmente nublado
9:30 AM 75.2 ° F - 69.8 ° F 83% 29.98 pul 5.6 mi Variable 2.3 mph - N/A   Parcialmente nublado
10:00 AM 78 ° F - 70 ° F 71% 29.98 pul - Sur 3.5 mph - -  
10:00 AM 77.0 ° F - 69.8 ° F 78% 29.98 pul 5.6 mi Sur 3.5 mph - N/A   Parcialmente nublado
10:30 AM 77.0 ° F - 69.8 ° F 78% 29.98 pul 6.2 mi SSO 4.6 mph - N/A   Parcialmente nublado
11:00 AM 79 ° F - 70 ° F 68% 29.99 pul 9 mi SSO 4.6 mph - -   Nubes dispersas
11:00 AM 77.0 ° F - 69.8 ° F 78% 29.98 pul 6.2 mi SSO 4.6 mph - N/A   Parcialmente nublado
11:30 AM 77.0 ° F - 69.8 ° F 78% 29.98 pul 6.2 mi SSO 8.1 mph - N/A   Parcialmente nublado
12:00 PM 78 ° F - 70 ° F 71% 30.00 pul - SSO 10.4 mph - -  
12:00 PM 77.0 ° F - 69.8 ° F 78% 29.98 pul 6.2 mi SSO 10.4 mph - N/A   Parcialmente nublado
12:30 PM 78.8 ° F - 68.0 ° F 69% 29.98 pul 6.2 mi SO 10.4 mph - N/A   Parcialmente nublado
1:00 PM 80 ° F - 70 ° F 63% 30.00 pul - SSO 11.5 mph - -  
1:00 PM 78.8 ° F - 68.0 ° F 69% 30.01 pul 6.2 mi SO 10.4 mph - N/A   Parcialmente nublado
1:30 PM 78.8 ° F - 69.8 ° F 74% 30.01 pul 6.2 mi SO 10.4 mph - N/A   Parcialmente nublado
2:00 PM 82 ° F - 71 ° F 61% 30.00 pul 12 mi SSO 11.5 mph - -   Nubes dispersas
2:00 PM 80.6 ° F 83.9 ° F 69.8 ° F 70% 30.01 pul 6.2 mi SO 11.5 mph - N/A   Parcialmente nublado
2:30 PM 80.6 ° F 83.9 ° F 69.8 ° F 70% 29.98 pul 6.2 mi SO 11.5 mph - N/A   Parcialmente nublado
3:00 PM 82.4 ° F 87.2 ° F 71.6 ° F 70% 29.98 pul 6.2 mi SO 10.4 mph - N/A   Parcialmente nublado
3:30 PM 84.2 ° F 89.6 ° F 71.6 ° F 66% 29.98 pul 6.2 mi SO 9.2 mph - N/A   Parcialmente nublado
4:00 PM 82 ° F - 71 ° F 61% 29.99 pul - SO 10.4 mph - -  
4:00 PM 82.4 ° F 87.2 ° F 71.6 ° F 70% 29.98 pul 6.2 mi SO 10.4 mph - N/A   Parcialmente nublado
4:30 PM 80.6 ° F 83.9 ° F 69.8 ° F 70% 29.98 pul 6.2 mi SO 11.5 mph - N/A   Parcialmente nublado
5:00 PM 81 ° F - 71 ° F 63% 29.98 pul 16 mi SO 11.5 mph - -   Nubes dispersas
5:00 PM 80.6 ° F 83.9 ° F 69.8 ° F 70% 29.98 pul 6.2 mi SO 11.5 mph - N/A   Parcialmente nublado
5:30 PM 80.6 ° F 83.9 ° F 69.8 ° F 70% 29.98 pul 6.2 mi SO 12.7 mph - N/A   Parcialmente nublado
6:00 PM 80 ° F - 70 ° F 65% 29.98 pul - SO 9.2 mph - -  
6:00 PM 78.8 ° F - 69.8 ° F 74% 29.98 pul 6.2 mi SO 9.2 mph - N/A   Parcialmente nublado
6:30 PM 78.8 ° F - 69.8 ° F 74% 29.98 pul 6.2 mi SO 10.4 mph - N/A   Parcialmente nublado
7:00 PM 80 ° F - 70 ° F 64% 29.97 pul - SO 9.2 mph - -  
7:00 PM 78.8 ° F - 68.0 ° F 69% 29.98 pul 6.2 mi SO 8.1 mph - N/A   Parcialmente nublado
7:30 PM 78.8 ° F - 68.0 ° F 69% 29.98 pul - SO 6.9 mph - N/A   Despejado
8:00 PM 78 ° F - 70 ° F 69% 29.97 pul 12 mi SO 5.8 mph - -   Despejado
8:00 PM 78.8 ° F - 68.0 ° F 69% 29.98 pul - SO 5.8 mph - N/A   Despejado
8:30 PM 77.0 ° F - 68.0 ° F 74% 29.98 pul - SSO 4.6 mph - N/A   Despejado
9:00 PM 77 ° F - 69 ° F 70% 29.98 pul - SSE 2.3 mph - -  
9:00 PM 77.0 ° F - 68.0 ° F 74% 29.98 pul - Variable 1.2 mph - N/A   Despejado
9:30 PM 77.0 ° F - 68.0 ° F 74% 29.98 pul - Variable 1.2 mph - N/A   Despejado
10:00 PM 77.0 ° F - 68.0 ° F 74% 29.98 pul - Variable 1.2 mph - N/A   Despejado
10:30 PM 75.2 ° F - 69.8 ° F 83% 30.01 pul - SE 4.6 mph - N/A   Despejado
11:00 PM 75.2 ° F - 69.8 ° F 83% 30.01 pul - ESE 2.3 mph - N/A   Despejado
11:30 PM 75.2 ° F - 68.0 ° F 78% 30.01 pul 6.2 mi Este 3.5 mph - N/A   Desconocido